Regional Weather Roundup
Issued by NWS Goodland, KS

Home | Current Version | Previous Version | Graphics & Text | Print | Product List | Glossary On
Versions: 1 2 3 4 5 6 7 8 9 10 11 12 13 14 15 16 17 18 19 20 21 22 23 24 25 26 27 28 29 30 31 32 33 34 35 36 37 38 39 40 41 42 43 44 45 46 47 48 49 50
000
ASUS43 KGLD 301459
RWRGLD

GOODLAND FORECAST AREA HOURLY WEATHER ROUNDUP
NATIONAL WEATHER SERVICE GOODLAND KS
900 AM MDT THU OCT 30 2014

...OFFICIAL OBSERVATIONS...

CITY           SKY/WX    TMP DP  RH WIND       PRES   REMARKS
GOODLAND KS    SUNNY     50  28  42 NW14      30.32R
HILL CITY KS   SUNNY     54  30  40 NW13      30.24R
IMPERIAL NEB   SUNNY     50  29  44 NW13      30.29R
MCCOOK NEB     SUNNY     48  30  49 NW13      30.25R
AKRON CO       SUNNY     44  26  49 W10       30.35R
BURLINGTON CO  SUNNY     49  27  42 NW12      30.33R
LIMON CO       SUNNY     47  26  44 NW7       30.38R
$$

...UNOFFICIAL OBSERVATIONS...

CITY           SKY/WX    TMP DP  RH WIND       PRES   REMARKS
COLBY KS       SUNNY     48  34  57 NW12G17   30.29R
NORTON KS      SUNNY     50  27  40 NW12      30.21R
SHARON SPRINGS   N/A     49  32  52 NW9         N/A
TRIBUNE KS     SUNNY     54  36  50 NW13      30.32R
TRENTON NEB      N/A     48  32  54 NW15        N/A
$$



USA.gov is the U.S. government's official web portal to all federal, state and local government web resources and services.